Weather in Kovrov

Russia / Vladimir Oblast     56°21′49″N   41°18′40″E
temp.,
°C
wind,
m/s
gust,
m/s
humid.,
%
clouds,
%
prec.,
mm/h
press.,
hPa
HPBL,
m
24 september, fri
fri2400:00+9se3898100 0.2 1010376
03:00+9sse3895100 0.5 1009356
06:00+8sse3795100 0.1 1008327
09:00+9s488621 0.1 1008615
12:00+12s4866100 0.2 10081289
15:00+11s486792 0.4 10081062
18:00+10sse377390 0.0 1008260
21:00+6se379019 0.0 1008127
25 september, sat
sat2500:00+8se31080100 0.0 1008316
03:00+8se268733 0.1 1008187
06:00+6se259195 0.0 100980
09:00+9se2675100 0.0 1009242
12:00+11sse3671100 0.0 1009378
15:00+12s247092 0.3 1009546
18:00+10sse238442 0.3 100965
21:00+8s239388 0.3 100967
26 september, sun
sun2600:00+9s3887100 0.0 1008215
03:00+8sse2688100 0.1 1007163
06:00+8sse2591100 0.1 1007145
09:00+9se2590100 0.4 1006207
12:00+11ese147979 0.3 1006316
15:00+10e478497 1.3 1008477
18:00+9ne379199 0.4 1010262
21:00+9nne3993100 0.6 1012363
27 september, mon
mon2700:00+8nne399224 0.2 1013366
03:00+6n31095100 0.2 1015347
06:00+7n4996100 0.0 1016521
09:00+8n4995100 0.1 1018556
12:00+9n4891100 0.1 1019653
15:00+9nne4888100 0.2 1021641
18:00+8nne4991100 0.0 1023635
21:00+8nne4894100 0.1 1024593
28 september, tue
tue2800:00+7ene4790100 0.1 1026547
03:00+6ne3791100 0.1 1028485
06:00+6ne378952 0.0 1029401
09:00+7ne35766 0.0 1031465
12:00+10ene34535 0.0 10311088
15:00+11nne334626 0.0 10311193
18:00+7ne22666 0.0 103226
21:00+5ne227457 0.0 103318